Regional Weather Roundup
Issued by NWS Sioux Falls, SD

Home | Current Version | Previous Version | Graphics & Text | Print | Product List | Glossary Off
Versions: 1 2 3 4 5 6 7 8 9 10 11 12 13 14 15 16 17 18 19 20 21 22 23 24 25 26 27 28 29 30 31 32 33 34 35 36 37 38 39 40 41 42 43 44 45 46 47 48 49 50

000
ASUS43 KFSD 301902
RWRFSD

WEATHER ROUNDUP FOR SE SOUTH DAKOTA/SW MINNESOTA/NW IOWA
NATIONAL WEATHER SERVICE SIOUX FALLS SD
200 PM CDT MON MAY 30 2016

NOTE: "FAIR" INDICATES FEW OR NO CLOUDS BELOW 12,000 FEET WITH NO
SIGNIFICANT WEATHER AND OR OBSTRUCTIONS TO VISIBILITY.


SDZ038>040-050-052>070-302000-
SOUTHEAST SOUTH DAKOTA

CITY           SKY/WX    TMP DP  RH WIND       PRES   REMARKS
BROOKINGS      CLOUDY    76  57  51 S15G23    29.91F
CHAMBERLAIN    NOT AVBL
HURON          PTSUNNY   77  58  51 S17G25    29.85F
MADISON        FAIR      77  57  50 S23       29.91F
MITCHELL       MOSUNNY   79  63  57 S16G29    29.87F
SIOUX FALLS    PTSUNNY   78  59  51 S16G22    29.91F
WINNER         FAIR      79  58  48 S13G22    29.85F
YANKTON          N/A     81  57  44 S13G24    29.88F
$$

MNZ071-072-080-081-089-090-097-098-302000-
SOUTHWEST MINNESOTA

CITY           SKY/WX    TMP DP  RH WIND       PRES   REMARKS
FAIRMONT       SUNNY     79  54  41 S20       29.97F
JACKSON        SUNNY     79  50  36 S13G18    29.98F
LUVERNE        MOSUNNY   79  52  38 S13       29.93F
MARSHALL       SUNNY     81  54  39 S21       29.92F
MONTEVIDEO     SUNNY     84  52  32 SW14      29.92F
PIPESTONE      CLOUDY    77  57  50 S16       29.93F
REDWOOD FALLS  SUNNY     83  52  34 SW12      29.93F
TRACY          SUNNY     80  55  41 S14G20    29.94F
WINDOM         SUNNY     81  54  39 S6G18     29.97F
WORTHINGTON    MOSUNNY   79  57  46 SE17G23   29.95F
$$

IAZ001>003-012>014-020>022-031-032-NEZ013-014-SDZ071-302000-
NORTHWEST IOWA

CITY           SKY/WX    TMP DP  RH WIND       PRES   REMARKS
DENISON        CLOUDY    84  54  34 S12G17    29.92F
ESTHERVILLE    SUNNY     78  59  51 SE15G22   29.97F
SIOUX CITY     CLOUDY    84  57  39 S14       29.91F
SPENCER        MOSUNNY   81  58  45 S8        29.95F
STORM LAKE       N/A     84  54  34 SW9       29.96F
$$

ABBREVIATIONS USED IN REMARKS
   TC - TEMPERATURE IN CELSIUS
  WCI - WIND CHILL INDEX
   HX - HEAT INDEX
  VSB - VISIBILITY





USA.gov is the U.S. government's official web portal to all federal, state and local government web resources and services.